HAZ2172 ZLDH-ZSHC

Flight info

Callsign HAZ2172
Flight time 3h 11m
Altitude 37100
Route VIKUP1 VIKUP W112 BILDA W619 JSG V67 ALGOT W199 YHD B215 GODON DCT HFE R343 UPLEL W95 SAPIN A470 IGRAT IGRAT91
Aircraft A20N/M-SDE2E3FGHIRWXY/LB1

Departure

Time 2026-05-07 13:29
Airport Dunhuang Mogao International Airport (ZLDH)

Arrival

Time 2026-05-07 16:41
Airport Hangzhou Xiaoshan International Airport (ZSHC)
Time Latitude Longitude Altitude Speed Heading
2026-05-07 13:06 40.16490 94.80496 3683 ft 0 kts 354°
2026-05-07 13:20 40.16487 94.80496 3684 ft 2 kts 354°
2026-05-07 13:21 40.16472 94.80498 3684 ft 2 kts 354°
2026-05-07 13:21 40.16457 94.80499 3685 ft 2 kts 354°
2026-05-07 13:21 40.16442 94.80502 3686 ft 2 kts 354°
2026-05-07 13:21 40.16427 94.80504 3687 ft 2 kts 354°
2026-05-07 13:22 40.16418 94.80505 3688 ft 2 kts 354°
2026-05-07 13:22 40.16404 94.80512 3688 ft 2 kts 317°
2026-05-07 13:22 40.16396 94.80528 3689 ft 2 kts 287°
2026-05-07 13:22 40.16394 94.80541 3689 ft 0 kts 268°
2026-05-07 13:23 40.16394 94.80550 3689 ft 0 kts 265°
2026-05-07 13:23 40.16395 94.80550 3689 ft 0 kts 265°
2026-05-07 13:25 40.16394 94.80547 3689 ft 0 kts 264°
2026-05-07 13:25 40.16394 94.80543 3689 ft 0 kts 264°
2026-05-07 13:25 40.16391 94.80482 3689 ft 12 kts 266°
2026-05-07 13:26 40.16384 94.80361 3688 ft 14 kts 265°
2026-05-07 13:26 40.16340 94.80256 3689 ft 13 kts 194°
2026-05-07 13:26 40.16261 94.80254 3694 ft 9 kts 173°
2026-05-07 13:26 40.16208 94.80263 3697 ft 5 kts 173°
2026-05-07 13:27 40.16175 94.80270 3699 ft 4 kts 173°
2026-05-07 13:27 40.16145 94.80264 3700 ft 5 kts 208°
2026-05-07 13:27 40.16122 94.80217 3701 ft 8 kts 249°
2026-05-07 13:27 40.16098 94.80012 3702 ft 25 kts 264°
2026-05-07 13:28 40.16080 94.79785 3701 ft 24 kts 264°
2026-05-07 13:28 40.16062 94.79565 3700 ft 22 kts 264°
2026-05-07 13:28 40.16093 94.79385 3699 ft 17 kts 280°
2026-05-07 13:28 40.16046 94.79341 3701 ft 8 kts 123°
2026-05-07 13:29 40.16048 94.79401 3701 ft 7 kts 82°
2026-05-07 13:29 40.16072 94.79700 3700 ft 69 kts 85°
2026-05-07 13:29 40.16145 94.80609 3701 ft 132 kts 85°
2026-05-07 13:29 40.16266 94.82027 3823 ft 170 kts 84°
2026-05-07 13:30 40.16384 94.83560 4373 ft 172 kts 85°
2026-05-07 13:30 40.16488 94.85112 5042 ft 173 kts 85°
2026-05-07 13:30 40.16594 94.86668 5663 ft 178 kts 85°
2026-05-07 13:30 40.16712 94.88341 6113 ft 194 kts 85°
2026-05-07 13:31 40.16844 94.90163 6557 ft 211 kts 84°
2026-05-07 13:31 40.16987 94.92111 7100 ft 221 kts 84°
2026-05-07 13:31 40.17135 94.94115 7794 ft 224 kts 84°
2026-05-07 13:31 40.17285 94.96149 8494 ft 226 kts 84°
2026-05-07 13:32 40.17438 94.98228 8993 ft 239 kts 84°
2026-05-07 13:32 40.17605 95.00488 9326 ft 261 kts 84°
2026-05-07 13:32 40.17781 95.02878 9960 ft 271 kts 84°
2026-05-07 13:32 40.17958 95.05399 10410 ft 288 kts 87°
2026-05-07 13:33 40.17726 95.08043 10791 ft 306 kts 108°
2026-05-07 13:33 40.16690 95.10551 11189 ft 323 kts 130°
2026-05-07 13:33 40.14917 95.12435 11564 ft 340 kts 153°
2026-05-07 13:33 40.12613 95.13301 11916 ft 356 kts 173°
2026-05-07 13:34 40.10086 95.13588 12382 ft 368 kts 175°
2026-05-07 13:34 40.04942 95.14215 13765 ft 376 kts 174°
2026-05-07 13:34 40.02337 95.14552 14451 ft 380 kts 174°
2026-05-07 13:35 39.99706 95.14896 15113 ft 384 kts 174°
2026-05-07 13:35 39.97044 95.15247 15759 ft 387 kts 174°
2026-05-07 13:35 39.94392 95.15986 16354 ft 391 kts 158°
2026-05-07 13:35 39.92095 95.17818 16975 ft 394 kts 138°
2026-05-07 13:36 39.90361 95.20572 17585 ft 397 kts 119°
2026-05-07 13:36 39.89133 95.23771 18180 ft 400 kts 115°
2026-05-07 13:36 39.87935 95.27036 18717 ft 404 kts 115°
2026-05-07 13:36 39.86718 95.30330 19262 ft 408 kts 115°
2026-05-07 13:37 39.85464 95.33691 19815 ft 411 kts 116°
2026-05-07 13:37 39.84216 95.37012 20346 ft 414 kts 116°
2026-05-07 13:37 39.82948 95.40369 20866 ft 418 kts 116°
2026-05-07 13:37 39.81650 95.43794 21379 ft 421 kts 116°
2026-05-07 13:38 39.80357 95.47201 21873 ft 424 kts 116°
2026-05-07 13:38 39.79052 95.50634 22354 ft 427 kts 116°
2026-05-07 13:38 39.77735 95.54091 22823 ft 430 kts 116°
2026-05-07 13:38 39.76414 95.57571 23279 ft 433 kts 116°
2026-05-07 13:39 39.75084 95.61093 23723 ft 436 kts 115°
2026-05-07 13:39 39.73747 95.64635 24151 ft 439 kts 115°
2026-05-07 13:39 39.72401 95.68201 24564 ft 442 kts 116°
2026-05-07 13:39 39.71053 95.71764 24968 ft 444 kts 116°
2026-05-07 13:40 39.69690 95.75368 25355 ft 447 kts 116°
2026-05-07 13:40 39.68315 95.78995 25729 ft 449 kts 116°
2026-05-07 13:40 39.66936 95.82628 26093 ft 452 kts 116°
2026-05-07 13:40 39.65558 95.86255 26441 ft 454 kts 116°
2026-05-07 13:41 39.64150 95.89957 26776 ft 456 kts 116°
2026-05-07 13:41 39.62751 95.93632 27093 ft 459 kts 116°
2026-05-07 13:41 39.61324 95.97377 27405 ft 461 kts 116°
2026-05-07 13:41 39.59910 96.01083 27695 ft 463 kts 116°
2026-05-07 13:42 39.58491 96.04795 27979 ft 465 kts 116°
2026-05-07 13:42 39.57046 96.08568 28358 ft 464 kts 116°
2026-05-07 13:42 39.55617 96.12273 28764 ft 462 kts 116°
2026-05-07 13:42 39.54171 96.15951 29152 ft 461 kts 117°
2026-05-07 13:43 39.52705 96.19655 29525 ft 461 kts 117°
2026-05-07 13:43 39.51238 96.23356 29894 ft 460 kts 117°
2026-05-07 13:43 39.49794 96.27003 30254 ft 459 kts 117°
2026-05-07 13:43 39.48335 96.30685 30610 ft 459 kts 117°
2026-05-07 13:44 39.46901 96.34302 30959 ft 458 kts 117°
2026-05-07 13:44 39.45438 96.37992 31310 ft 457 kts 117°
2026-05-07 13:44 39.43999 96.41619 31643 ft 456 kts 117°
2026-05-07 13:44 39.42556 96.45248 31967 ft 456 kts 117°
2026-05-07 13:45 39.41119 96.48862 32282 ft 455 kts 117°
2026-05-07 13:45 39.39664 96.52515 32588 ft 454 kts 117°
2026-05-07 13:45 39.38227 96.56119 32881 ft 454 kts 117°
2026-05-07 13:45 39.36789 96.59722 33170 ft 453 kts 117°
2026-05-07 13:46 39.35349 96.63326 33447 ft 453 kts 117°
2026-05-07 13:46 39.33908 96.66927 33715 ft 452 kts 117°
2026-05-07 13:46 39.32471 96.70517 33979 ft 452 kts 117°
2026-05-07 13:46 39.31017 96.74146 34235 ft 451 kts 117°
2026-05-07 13:47 39.29576 96.77735 34479 ft 451 kts 117°
2026-05-07 13:47 39.28138 96.81311 34717 ft 450 kts 117°
2026-05-07 13:47 39.26716 96.84846 34946 ft 450 kts 117°
2026-05-07 13:47 39.25293 96.88422 35168 ft 449 kts 117°
2026-05-07 13:48 39.23863 96.92037 35371 ft 449 kts 117°
2026-05-07 13:48 39.22452 96.95609 35541 ft 450 kts 117°
2026-05-07 13:48 39.21037 96.99187 35693 ft 450 kts 117°
2026-05-07 13:48 39.19615 97.02777 35838 ft 451 kts 117°
2026-05-07 13:49 39.18194 97.06358 35979 ft 452 kts 117°
2026-05-07 13:49 39.16775 97.09932 36116 ft 452 kts 117°
2026-05-07 13:49 39.15330 97.13565 36250 ft 453 kts 117°
2026-05-07 13:49 39.13911 97.17128 36373 ft 453 kts 117°
2026-05-07 13:50 39.12462 97.20763 36487 ft 454 kts 117°
2026-05-07 13:50 39.11026 97.24360 36594 ft 455 kts 117°
2026-05-07 13:50 39.09584 97.27969 36698 ft 455 kts 117°
2026-05-07 13:50 39.08142 97.31572 36799 ft 456 kts 117°
2026-05-07 13:51 39.06690 97.35197 36896 ft 457 kts 117°
2026-05-07 13:51 39.03784 97.42441 37081 ft 458 kts 117°
2026-05-07 13:52 39.00846 97.49747 37093 ft 462 kts 117°
2026-05-07 13:52 38.97892 97.57078 37095 ft 467 kts 117°
2026-05-07 13:53 38.94891 97.64506 37094 ft 470 kts 117°
2026-05-07 13:53 38.91864 97.71960 37094 ft 472 kts 117°
2026-05-07 13:54 38.88864 97.79316 37093 ft 461 kts 117°
2026-05-07 13:54 38.85915 97.86542 37094 ft 459 kts 117°
2026-05-07 13:55 38.82951 97.93790 37094 ft 459 kts 117°
2026-05-07 13:55 38.79987 98.01025 37094 ft 459 kts 117°
2026-05-07 13:56 38.77042 98.08195 37094 ft 459 kts 117°
2026-05-07 13:56 38.74065 98.15425 37093 ft 459 kts 117°
2026-05-07 13:57 38.71099 98.22615 37093 ft 459 kts 117°
2026-05-07 13:57 38.68122 98.29813 37093 ft 459 kts 117°
2026-05-07 13:58 38.65129 98.37034 37093 ft 459 kts 117°
2026-05-07 13:58 38.62155 98.44192 37093 ft 459 kts 117°
2026-05-07 13:59 38.59174 98.51349 37094 ft 459 kts 117°
2026-05-07 13:59 38.56173 98.58541 37093 ft 459 kts 117°
2026-05-07 14:00 38.53169 98.65721 37092 ft 459 kts 118°
2026-05-07 14:00 38.50183 98.72841 37091 ft 459 kts 118°
2026-05-07 14:01 38.47165 98.80025 37091 ft 459 kts 118°
2026-05-07 14:01 38.44151 98.87178 37091 ft 459 kts 118°
2026-05-07 14:02 38.41135 98.94323 37092 ft 459 kts 118°
2026-05-07 14:02 38.38127 99.01432 37092 ft 459 kts 118°
2026-05-07 14:03 38.35095 99.08581 37092 ft 459 kts 118°
2026-05-07 14:03 38.32079 99.15676 37092 ft 459 kts 118°
2026-05-07 14:04 38.29034 99.22824 37092 ft 459 kts 118°
2026-05-07 14:04 38.26416 99.28957 37092 ft 459 kts 118°
2026-05-07 14:05 38.24704 99.33050 37284 ft 458 kts 123°
2026-05-07 14:05 38.21645 99.40163 37410 ft 464 kts 123°
2026-05-07 14:06 38.18537 99.47360 37433 ft 471 kts 123°
2026-05-07 14:06 38.15369 99.54703 37517 ft 477 kts 123°
2026-05-07 14:06 38.13770 99.58409 37704 ft 481 kts 123°
2026-05-07 14:07 38.12157 99.62141 37672 ft 486 kts 123°
2026-05-07 14:07 38.08884 99.69706 37676 ft 493 kts 124°
2026-05-07 14:08 38.05573 99.77352 37697 ft 496 kts 124°
2026-05-07 14:08 38.02254 99.84999 37705 ft 498 kts 124°
2026-05-07 14:09 37.98925 99.92641 37715 ft 499 kts 124°
2026-05-07 14:09 37.95552 100.00368 37713 ft 500 kts 124°
2026-05-07 14:10 37.92218 100.07997 37706 ft 499 kts 124°
2026-05-07 14:10 37.88838 100.15693 37688 ft 500 kts 123°
2026-05-07 14:11 37.85478 100.23339 37669 ft 500 kts 123°
2026-05-07 14:11 37.82090 100.31035 37662 ft 499 kts 123°
2026-05-07 14:12 37.78708 100.38691 37680 ft 500 kts 123°
2026-05-07 14:12 37.75329 100.46325 37695 ft 500 kts 124°
2026-05-07 14:13 37.71941 100.53964 37698 ft 500 kts 124°
2026-05-07 14:13 37.68545 100.61604 37689 ft 499 kts 123°
2026-05-07 14:14 37.65161 100.69212 37659 ft 500 kts 123°
2026-05-07 14:14 37.61883 100.76964 37660 ft 501 kts 123°
2026-05-07 14:15 37.58642 100.84715 37663 ft 501 kts 123°
2026-05-07 14:15 37.55390 100.92439 37662 ft 502 kts 123°
2026-05-07 14:16 37.52125 101.00165 37648 ft 501 kts 123°
2026-05-07 14:16 37.48864 101.07853 37649 ft 500 kts 123°
2026-05-07 14:17 37.45586 101.15561 37660 ft 501 kts 123°
2026-05-07 14:17 37.42318 101.23238 37659 ft 501 kts 123°
2026-05-07 14:18 37.39006 101.30989 37639 ft 502 kts 123°
2026-05-07 14:18 37.35732 101.38650 37638 ft 500 kts 123°
2026-05-07 14:19 37.32437 101.46332 37630 ft 502 kts 122°
2026-05-07 14:19 37.29540 101.54309 37625 ft 506 kts 115°
2026-05-07 14:20 37.27363 101.62735 37622 ft 509 kts 109°
2026-05-07 14:20 37.25458 101.71246 37623 ft 509 kts 110°
2026-05-07 14:21 37.23520 101.79783 37612 ft 510 kts 110°
2026-05-07 14:21 37.21571 101.88261 37597 ft 511 kts 110°
2026-05-07 14:22 37.19607 101.96787 37607 ft 511 kts 110°
2026-05-07 14:22 37.17619 102.05363 37607 ft 511 kts 110°
2026-05-07 14:23 37.15635 102.13883 37592 ft 510 kts 110°
2026-05-07 14:23 37.13643 102.22391 37600 ft 512 kts 111°
2026-05-07 14:24 37.11227 102.30706 37594 ft 507 kts 119°
2026-05-07 14:24 37.08052 102.38519 37593 ft 500 kts 126°
2026-05-07 14:25 37.04398 102.45864 37581 ft 500 kts 128°
2026-05-07 14:25 37.00710 102.53188 37573 ft 499 kts 128°
2026-05-07 14:26 36.97026 102.60540 37564 ft 500 kts 128°
2026-05-07 14:26 36.93349 102.67870 37552 ft 501 kts 128°
2026-05-07 14:27 36.89639 102.75263 37577 ft 500 kts 128°
2026-05-07 14:27 36.85960 102.82587 37583 ft 500 kts 129°
2026-05-07 14:28 36.82280 102.89952 37587 ft 505 kts 126°
2026-05-07 14:28 36.79034 102.97742 37578 ft 508 kts 121°
2026-05-07 14:29 36.75990 103.05650 37569 ft 510 kts 121°
2026-05-07 14:29 36.72924 103.13600 37563 ft 509 kts 121°
2026-05-07 14:30 36.69847 103.21537 37549 ft 509 kts 121°
2026-05-07 14:30 36.66758 103.29462 37551 ft 511 kts 121°
2026-05-07 14:31 36.63669 103.37376 37512 ft 510 kts 121°
2026-05-07 14:31 36.60562 103.45312 37483 ft 511 kts 121°
2026-05-07 14:32 36.57451 103.53250 37458 ft 512 kts 121°
2026-05-07 14:32 36.54328 103.61137 37433 ft 511 kts 123°
2026-05-07 14:33 36.50848 103.68803 37427 ft 507 kts 126°
2026-05-07 14:33 36.47287 103.76375 37432 ft 509 kts 127°
2026-05-07 14:34 36.43739 103.83931 37431 ft 508 kts 126°
2026-05-07 14:34 36.40203 103.91461 37448 ft 508 kts 126°
2026-05-07 14:35 36.36655 103.98998 37446 ft 510 kts 126°
2026-05-07 14:35 36.33073 104.06599 37447 ft 509 kts 126°
2026-05-07 14:36 36.29491 104.14159 37452 ft 511 kts 126°
2026-05-07 14:36 36.25911 104.21721 37459 ft 511 kts 126°
2026-05-07 14:37 36.22305 104.29327 37468 ft 512 kts 127°
2026-05-07 14:37 36.16899 104.40670 37470 ft 513 kts 126°
2026-05-07 14:38 36.13276 104.48241 37467 ft 513 kts 126°
2026-05-07 14:38 36.09633 104.55857 37466 ft 513 kts 126°
2026-05-07 14:39 36.05998 104.63425 37461 ft 515 kts 126°
2026-05-07 14:39 36.02362 104.70995 37450 ft 515 kts 127°
2026-05-07 14:40 35.98712 104.78578 37452 ft 512 kts 127°
2026-05-07 14:40 35.95089 104.86083 37445 ft 514 kts 127°
2026-05-07 14:41 35.91420 104.93668 37453 ft 514 kts 127°
2026-05-07 14:41 35.87767 105.01216 37448 ft 515 kts 127°
2026-05-07 14:42 35.84111 105.08781 37447 ft 517 kts 126°
2026-05-07 14:42 35.80447 105.16371 37451 ft 517 kts 127°
2026-05-07 14:43 35.76765 105.23978 37445 ft 518 kts 127°
2026-05-07 14:43 35.73093 105.31544 37447 ft 518 kts 126°
2026-05-07 14:44 35.69397 105.39149 37446 ft 519 kts 126°
2026-05-07 14:44 35.65686 105.46770 37449 ft 519 kts 126°
2026-05-07 14:45 35.61969 105.54380 37453 ft 521 kts 126°
2026-05-07 14:45 35.58281 105.61927 37454 ft 520 kts 125°
2026-05-07 14:46 35.54946 105.69855 37452 ft 527 kts 118°
2026-05-07 14:46 35.52434 105.78341 37462 ft 532 kts 109°
2026-05-07 14:47 35.50816 105.87196 37468 ft 536 kts 102°
2026-05-07 14:47 35.49519 105.96207 37463 ft 537 kts 102°
2026-05-07 14:48 35.48196 106.05238 37468 ft 537 kts 102°
2026-05-07 14:48 35.46852 106.14182 37472 ft 537 kts 102°
2026-05-07 14:49 35.45487 106.23165 37485 ft 538 kts 102°
2026-05-07 14:49 35.44112 106.32154 37475 ft 538 kts 102°
2026-05-07 14:50 35.42724 106.41180 37459 ft 540 kts 102°
2026-05-07 14:50 35.41334 106.50184 37456 ft 539 kts 103°
2026-05-07 14:51 35.39938 106.59148 37452 ft 541 kts 102°
2026-05-07 14:51 35.38529 106.68198 37444 ft 540 kts 103°
2026-05-07 14:52 35.37115 106.77191 37437 ft 542 kts 103°
2026-05-07 14:52 35.35685 106.86254 37443 ft 542 kts 103°
2026-05-07 14:53 35.34251 106.95310 37453 ft 543 kts 103°
2026-05-07 14:53 35.32821 107.04298 37450 ft 543 kts 103°
2026-05-07 14:54 35.31369 107.13402 37436 ft 545 kts 103°
2026-05-07 14:54 35.29922 107.22436 37436 ft 545 kts 103°
2026-05-07 14:55 35.28464 107.31501 37435 ft 545 kts 103°
2026-05-07 14:55 35.26991 107.40606 37418 ft 547 kts 103°
2026-05-07 14:56 35.25521 107.49692 37418 ft 545 kts 103°
2026-05-07 14:56 35.24029 107.58755 37416 ft 547 kts 103°
2026-05-07 14:57 35.22362 107.67741 37404 ft 544 kts 112°
2026-05-07 14:57 35.19082 107.75951 37406 ft 532 kts 131°
2026-05-07 14:58 35.14196 107.82413 37395 ft 512 kts 149°
2026-05-07 14:58 35.08403 107.87265 37401 ft 504 kts 156°
2026-05-07 14:59 35.02502 107.91901 37392 ft 504 kts 156°
2026-05-07 14:59 34.96611 107.96595 37398 ft 507 kts 155°
2026-05-07 15:00 34.90766 108.01293 37409 ft 506 kts 155°
2026-05-07 15:00 34.84855 108.06049 37407 ft 507 kts 155°
2026-05-07 15:01 34.78985 108.10770 37411 ft 507 kts 155°
2026-05-07 15:01 34.73125 108.15472 37424 ft 507 kts 155°
2026-05-07 15:02 34.67222 108.20206 37431 ft 507 kts 155°
2026-05-07 15:02 34.61350 108.24904 37423 ft 506 kts 155°
2026-05-07 15:03 34.55495 108.29578 37422 ft 505 kts 155°
2026-05-07 15:03 34.49612 108.34270 37416 ft 506 kts 155°
2026-05-07 15:04 34.43725 108.38956 37411 ft 506 kts 155°
2026-05-07 15:04 34.37872 108.43606 37407 ft 507 kts 155°
2026-05-07 15:05 34.31957 108.48293 37397 ft 507 kts 155°
2026-05-07 15:05 34.26059 108.52966 37397 ft 508 kts 155°
2026-05-07 15:06 34.20182 108.57614 37402 ft 508 kts 155°
2026-05-07 15:06 34.14256 108.62291 37409 ft 506 kts 155°
2026-05-07 15:07 34.08382 108.66922 37416 ft 506 kts 155°
2026-05-07 15:07 34.02458 108.71578 37417 ft 506 kts 155°
2026-05-07 15:08 33.96550 108.76214 37397 ft 509 kts 155°
2026-05-07 15:08 33.90628 108.80854 37403 ft 510 kts 155°
2026-05-07 15:09 33.84666 108.85521 37420 ft 511 kts 155°
2026-05-07 15:09 33.78729 108.90158 37418 ft 511 kts 155°
2026-05-07 15:10 33.72766 108.94815 37420 ft 511 kts 155°
2026-05-07 15:10 33.66813 108.99443 37409 ft 512 kts 155°
2026-05-07 15:11 33.60857 109.04076 37395 ft 511 kts 155°
2026-05-07 15:11 33.54867 109.08727 37410 ft 513 kts 155°
2026-05-07 15:12 33.48890 109.13354 37398 ft 512 kts 155°
2026-05-07 15:12 33.42940 109.17954 37399 ft 512 kts 155°
2026-05-07 15:13 33.36931 109.22594 37399 ft 513 kts 154°
2026-05-07 15:13 33.30946 109.27209 37404 ft 512 kts 155°
2026-05-07 15:14 33.24972 109.31803 37404 ft 514 kts 155°
2026-05-07 15:14 33.18935 109.36443 37393 ft 514 kts 155°
2026-05-07 15:15 33.12941 109.41042 37399 ft 514 kts 154°
2026-05-07 15:15 33.06934 109.45640 37390 ft 516 kts 154°
2026-05-07 15:16 33.00915 109.50249 37378 ft 514 kts 155°
2026-05-07 15:16 32.94866 109.54863 37370 ft 516 kts 154°
2026-05-07 15:17 32.88841 109.59454 37360 ft 515 kts 154°
2026-05-07 15:17 32.82791 109.64053 37357 ft 518 kts 154°
2026-05-07 15:18 32.76757 109.68638 37350 ft 516 kts 155°
2026-05-07 15:18 32.70696 109.73236 37355 ft 516 kts 155°
2026-05-07 15:19 32.64665 109.77804 37357 ft 516 kts 155°
2026-05-07 15:19 32.58620 109.82372 37358 ft 515 kts 155°
2026-05-07 15:20 32.52604 109.86910 37368 ft 514 kts 155°
2026-05-07 15:20 32.46538 109.91479 37373 ft 514 kts 155°
2026-05-07 15:21 32.40504 109.96017 37370 ft 515 kts 155°
2026-05-07 15:21 32.34501 110.00527 37366 ft 514 kts 155°
2026-05-07 15:22 32.28444 110.05066 37357 ft 515 kts 155°
2026-05-07 15:22 32.22385 110.09602 37355 ft 515 kts 155°
2026-05-07 15:23 32.16380 110.14092 37355 ft 513 kts 155°
2026-05-07 15:23 32.10343 110.18594 37352 ft 513 kts 155°
2026-05-07 15:24 32.04306 110.23089 37344 ft 515 kts 155°
2026-05-07 15:24 31.98248 110.27595 37349 ft 515 kts 155°
2026-05-07 15:25 31.92224 110.32073 37357 ft 514 kts 155°
2026-05-07 15:25 31.86183 110.36552 37372 ft 512 kts 155°
2026-05-07 15:26 31.80128 110.41032 37395 ft 513 kts 155°
2026-05-07 15:26 31.74099 110.45489 37415 ft 513 kts 155°
2026-05-07 15:27 31.68050 110.49952 37413 ft 514 kts 155°
2026-05-07 15:27 31.61988 110.54418 37413 ft 515 kts 155°
2026-05-07 15:28 31.55946 110.58865 37401 ft 514 kts 155°
2026-05-07 15:28 31.49895 110.63310 37392 ft 514 kts 155°
2026-05-07 15:29 31.43846 110.67746 37379 ft 514 kts 155°
2026-05-07 15:29 31.37764 110.72201 37371 ft 513 kts 155°
2026-05-07 15:30 31.31747 110.76600 37362 ft 513 kts 155°
2026-05-07 15:30 31.25672 110.81035 37346 ft 514 kts 155°
2026-05-07 15:31 31.19633 110.85436 37346 ft 514 kts 156°
2026-05-07 15:31 31.13566 110.89851 37344 ft 515 kts 156°
2026-05-07 15:32 31.07499 110.94262 37340 ft 515 kts 156°
2026-05-07 15:32 31.01476 110.98635 37348 ft 514 kts 156°
2026-05-07 15:33 30.95430 111.03016 37357 ft 513 kts 155°
2026-05-07 15:33 30.89374 111.07398 37353 ft 514 kts 156°
2026-05-07 15:34 30.83315 111.11777 37349 ft 514 kts 155°
2026-05-07 15:34 30.77201 111.16189 37341 ft 516 kts 155°
2026-05-07 15:35 30.71159 111.20659 37314 ft 522 kts 149°
2026-05-07 15:35 30.68456 111.23552 37317 ft 533 kts 136°
2026-05-07 15:35 30.66288 111.27032 37316 ft 540 kts 123°
2026-05-07 15:36 30.64749 111.30996 37314 ft 545 kts 109°
2026-05-07 15:36 30.63927 111.35290 37312 ft 546 kts 95°
2026-05-07 15:36 30.63874 111.39652 37310 ft 543 kts 82°
2026-05-07 15:36 30.64429 111.43982 37315 ft 541 kts 76°
2026-05-07 15:37 30.65451 111.52645 37306 ft 544 kts 83°
2026-05-07 15:37 30.65947 111.61372 37301 ft 545 kts 84°
2026-05-07 15:38 30.66372 111.70161 37298 ft 545 kts 85°
2026-05-07 15:38 30.66814 111.78903 37300 ft 545 kts 85°
2026-05-07 15:39 30.67257 111.87658 37296 ft 545 kts 85°
2026-05-07 15:39 30.67689 111.96366 37296 ft 544 kts 84°
2026-05-07 15:40 30.68253 112.05119 37294 ft 544 kts 83°
2026-05-07 15:40 30.68873 112.13825 37284 ft 544 kts 83°
2026-05-07 15:41 30.69476 112.22557 37285 ft 543 kts 83°
2026-05-07 15:41 30.70066 112.31319 37274 ft 544 kts 83°
2026-05-07 15:42 30.70645 112.40038 37264 ft 546 kts 83°
2026-05-07 15:42 30.71223 112.48852 37266 ft 550 kts 83°
2026-05-07 15:43 30.71792 112.57661 37265 ft 550 kts 83°
2026-05-07 15:43 30.72364 112.66518 37261 ft 552 kts 84°
2026-05-07 15:44 30.72928 112.75392 37263 ft 551 kts 84°
2026-05-07 15:44 30.73483 112.84265 37262 ft 551 kts 84°
2026-05-07 15:45 30.74032 112.93082 37262 ft 551 kts 84°
2026-05-07 15:45 30.74578 113.01936 37261 ft 551 kts 84°
2026-05-07 15:46 30.75355 113.15226 37259 ft 552 kts 86°
2026-05-07 15:47 30.75614 113.24165 37257 ft 553 kts 87°
2026-05-07 15:47 30.75821 113.33020 37254 ft 552 kts 86°
2026-05-07 15:48 30.76035 113.41915 37252 ft 552 kts 86°
2026-05-07 15:48 30.76254 113.50818 37251 ft 553 kts 86°
2026-05-07 15:49 30.76464 113.59709 37252 ft 551 kts 86°
2026-05-07 15:49 30.76673 113.68610 37248 ft 552 kts 87°
2026-05-07 15:50 30.76872 113.77522 37253 ft 552 kts 86°
2026-05-07 15:50 30.77068 113.86416 37243 ft 552 kts 86°
2026-05-07 15:51 30.76894 113.95274 37231 ft 553 kts 101°
2026-05-07 15:51 30.74886 114.03854 37247 ft 552 kts 108°
2026-05-07 15:52 30.72621 114.12389 37242 ft 553 kts 108°
2026-05-07 15:52 30.70441 114.20901 37237 ft 552 kts 107°
2026-05-07 15:53 30.68310 114.29421 37235 ft 552 kts 107°
2026-05-07 15:53 30.66177 114.37976 37232 ft 552 kts 107°
2026-05-07 15:54 30.64038 114.46519 37227 ft 553 kts 107°
2026-05-07 15:54 30.61902 114.55041 37224 ft 552 kts 107°
2026-05-07 15:55 30.59749 114.63586 37226 ft 551 kts 107°
2026-05-07 15:55 30.57604 114.72084 37227 ft 551 kts 108°
2026-05-07 15:56 30.55449 114.80582 37220 ft 551 kts 107°
2026-05-07 15:56 30.53280 114.89117 37223 ft 552 kts 107°
2026-05-07 15:57 30.51116 114.97614 37221 ft 552 kts 107°
2026-05-07 15:57 30.48941 115.06127 37216 ft 552 kts 107°
2026-05-07 15:58 30.46759 115.14643 37218 ft 551 kts 107°
2026-05-07 15:58 30.44378 115.23000 37222 ft 550 kts 114°
2026-05-07 15:59 30.41081 115.30914 37217 ft 546 kts 122°
2026-05-07 15:59 30.37038 115.38318 37224 ft 544 kts 127°
2026-05-07 16:00 30.32871 115.45605 37228 ft 544 kts 127°
2026-05-07 16:00 30.28717 115.52919 37222 ft 543 kts 126°
2026-05-07 16:01 30.24592 115.60208 37219 ft 543 kts 126°
2026-05-07 16:01 30.20469 115.67499 37217 ft 543 kts 127°
2026-05-07 16:02 30.16343 115.74777 37217 ft 543 kts 127°
2026-05-07 16:02 30.12223 115.82034 37218 ft 543 kts 127°
2026-05-07 16:03 30.08084 115.89307 37214 ft 543 kts 127°
2026-05-07 16:03 30.03940 115.96584 37207 ft 543 kts 127°
2026-05-07 16:04 29.99802 116.03835 37215 ft 542 kts 127°
2026-05-07 16:04 29.95661 116.11073 37211 ft 542 kts 127°
2026-05-07 16:05 29.91514 116.18321 37213 ft 542 kts 127°
2026-05-07 16:05 29.87365 116.25545 37212 ft 543 kts 127°
2026-05-07 16:06 29.83211 116.32773 37213 ft 542 kts 127°
2026-05-07 16:06 29.79056 116.39984 37207 ft 542 kts 127°
2026-05-07 16:07 29.74883 116.47214 37206 ft 542 kts 127°
2026-05-07 16:07 29.70730 116.54405 37208 ft 542 kts 127°
2026-05-07 16:08 29.66559 116.61610 37203 ft 542 kts 127°
2026-05-07 16:08 29.62387 116.68810 37200 ft 540 kts 128°
2026-05-07 16:09 29.58240 116.75942 37190 ft 540 kts 127°
2026-05-07 16:09 29.54051 116.83137 37187 ft 540 kts 128°
2026-05-07 16:10 29.49899 116.90268 36909 ft 539 kts 127°
2026-05-07 16:10 29.47822 116.93829 36742 ft 539 kts 128°
2026-05-07 16:10 29.45741 116.97390 36589 ft 538 kts 128°
2026-05-07 16:10 29.43646 117.00969 36434 ft 539 kts 127°
2026-05-07 16:11 29.41586 117.04495 36303 ft 538 kts 127°
2026-05-07 16:11 29.39512 117.08044 36180 ft 538 kts 127°
2026-05-07 16:11 29.37695 117.11871 36008 ft 543 kts 114°
2026-05-07 16:11 29.36603 117.15969 35852 ft 546 kts 101°
2026-05-07 16:12 29.36247 117.20288 35724 ft 545 kts 88°
2026-05-07 16:12 29.36635 117.24563 35605 ft 541 kts 75°
2026-05-07 16:12 29.37734 117.28664 35370 ft 535 kts 64°
2026-05-07 16:12 29.39191 117.32539 34906 ft 535 kts 61°
2026-05-07 16:13 29.40744 117.36430 34429 ft 536 kts 61°
2026-05-07 16:13 29.42295 117.40333 33886 ft 537 kts 62°
2026-05-07 16:13 29.43806 117.44212 33360 ft 539 kts 62°
2026-05-07 16:13 29.45303 117.48133 32844 ft 539 kts 63°
2026-05-07 16:14 29.46786 117.52072 32334 ft 539 kts 63°
2026-05-07 16:14 29.48258 117.56012 31788 ft 540 kts 63°
2026-05-07 16:14 29.49726 117.59956 31237 ft 541 kts 63°
2026-05-07 16:14 29.51194 117.63915 30755 ft 541 kts 63°
2026-05-07 16:15 29.52665 117.67879 30219 ft 541 kts 64°
2026-05-07 16:15 29.54137 117.71851 29724 ft 542 kts 64°
2026-05-07 16:15 29.55613 117.75834 29203 ft 543 kts 64°
2026-05-07 16:15 29.57092 117.79831 28678 ft 543 kts 63°
2026-05-07 16:16 29.58564 117.83807 28155 ft 544 kts 64°
2026-05-07 16:16 29.60024 117.87760 27692 ft 544 kts 64°
2026-05-07 16:16 29.61500 117.91759 27200 ft 544 kts 64°
2026-05-07 16:16 29.62977 117.95760 26722 ft 544 kts 64°
2026-05-07 16:17 29.64452 117.99765 26210 ft 544 kts 64°
2026-05-07 16:17 29.65927 118.03780 25691 ft 545 kts 64°
2026-05-07 16:17 29.67386 118.07757 25224 ft 545 kts 64°
2026-05-07 16:17 29.68859 118.11771 24725 ft 545 kts 64°
2026-05-07 16:18 29.70305 118.15735 24300 ft 543 kts 65°
2026-05-07 16:18 29.71552 118.19846 23909 ft 541 kts 71°
2026-05-07 16:18 29.72435 118.24043 23559 ft 540 kts 78°
2026-05-07 16:18 29.72949 118.28312 23242 ft 537 kts 84°
2026-05-07 16:19 29.73092 118.32539 22937 ft 535 kts 90°
2026-05-07 16:19 29.72881 118.36796 22661 ft 532 kts 95°
2026-05-07 16:19 29.72500 118.41023 22421 ft 530 kts 96°
2026-05-07 16:19 29.72083 118.45225 22197 ft 528 kts 96°
2026-05-07 16:20 29.71669 118.49424 21993 ft 526 kts 96°
2026-05-07 16:20 29.71273 118.53555 21725 ft 524 kts 96°
2026-05-07 16:20 29.70887 118.57707 21423 ft 521 kts 96°
2026-05-07 16:20 29.70509 118.61840 21138 ft 517 kts 96°
2026-05-07 16:21 29.70136 118.65923 20860 ft 515 kts 96°
2026-05-07 16:21 29.69761 118.70012 20600 ft 513 kts 96°
2026-05-07 16:21 29.69392 118.74059 20354 ft 511 kts 96°
2026-05-07 16:21 29.69023 118.78121 20129 ft 509 kts 96°
2026-05-07 16:22 29.68658 118.82140 19925 ft 507 kts 96°
2026-05-07 16:22 29.68293 118.86157 19741 ft 506 kts 96°
2026-05-07 16:22 29.67927 118.90163 19461 ft 502 kts 97°
2026-05-07 16:22 29.67563 118.94155 19086 ft 499 kts 97°
2026-05-07 16:23 29.67201 118.98100 18703 ft 496 kts 97°
2026-05-07 16:23 29.66841 119.02013 18373 ft 494 kts 97°
2026-05-07 16:23 29.66481 119.05908 17980 ft 489 kts 97°
2026-05-07 16:23 29.66121 119.09790 17576 ft 487 kts 97°
2026-05-07 16:24 29.65895 119.13640 17185 ft 485 kts 88°
2026-05-07 16:24 29.66581 119.17381 16802 ft 479 kts 68°
2026-05-07 16:24 29.68202 119.20628 16202 ft 468 kts 53°
2026-05-07 16:24 29.70139 119.23627 15680 ft 462 kts 52°
2026-05-07 16:25 29.72042 119.26553 15241 ft 463 kts 52°
2026-05-07 16:25 29.73950 119.29528 14860 ft 460 kts 53°
2026-05-07 16:25 29.75839 119.32517 14502 ft 457 kts 53°
2026-05-07 16:25 29.77680 119.35460 14159 ft 455 kts 53°
2026-05-07 16:26 29.79512 119.38406 13802 ft 452 kts 53°
2026-05-07 16:26 29.81339 119.41352 13462 ft 450 kts 54°
2026-05-07 16:26 29.83116 119.44224 13047 ft 439 kts 53°
2026-05-07 16:26 29.84302 119.46146 12769 ft 436 kts 54°
2026-05-07 16:27 29.86639 119.49935 12188 ft 433 kts 53°
2026-05-07 16:27 29.88358 119.52721 11814 ft 431 kts 53°
2026-05-07 16:27 29.90093 119.55536 11404 ft 425 kts 53°
2026-05-07 16:27 29.91783 119.58281 10889 ft 413 kts 53°
2026-05-07 16:28 29.93414 119.60931 10459 ft 401 kts 53°
2026-05-07 16:28 29.95004 119.63516 10018 ft 390 kts 53°
2026-05-07 16:28 29.96555 119.66039 9567 ft 379 kts 53°
2026-05-07 16:28 29.98059 119.68484 9118 ft 369 kts 53°
2026-05-07 16:29 29.99507 119.70837 8682 ft 360 kts 53°
2026-05-07 16:29 30.00947 119.73186 8239 ft 352 kts 53°
2026-05-07 16:29 30.02343 119.75462 7909 ft 340 kts 53°
2026-05-07 16:29 30.03603 119.77646 7856 ft 322 kts 58°
2026-05-07 16:30 30.04647 119.79845 7852 ft 303 kts 60°
2026-05-07 16:30 30.05591 119.81943 7855 ft 285 kts 61°
2026-05-07 16:30 30.06487 119.83944 7866 ft 281 kts 60°
2026-05-07 16:30 30.07396 119.85964 7864 ft 281 kts 60°
2026-05-07 16:31 30.08292 119.87953 7854 ft 281 kts 60°
2026-05-07 16:31 30.09194 119.89958 7856 ft 278 kts 61°
2026-05-07 16:31 30.10050 119.91866 7859 ft 262 kts 61°
2026-05-07 16:31 30.10837 119.93707 7849 ft 247 kts 68°
2026-05-07 16:32 30.11036 119.95646 7749 ft 239 kts 93°
2026-05-07 16:32 30.10822 119.97556 7483 ft 238 kts 97°
2026-05-07 16:32 30.10576 119.99446 7182 ft 237 kts 95°
2026-05-07 16:32 30.10377 120.01322 6879 ft 235 kts 94°
2026-05-07 16:33 30.10216 120.03197 6580 ft 233 kts 92°
2026-05-07 16:33 30.10077 120.05051 6288 ft 231 kts 91°
2026-05-07 16:33 30.09947 120.06890 5996 ft 230 kts 91°
2026-05-07 16:33 30.09858 120.08724 5700 ft 226 kts 82°
2026-05-07 16:34 30.10256 120.10461 5412 ft 219 kts 62°
2026-05-07 16:34 30.10961 120.12004 5141 ft 215 kts 58°
2026-05-07 16:34 30.11697 120.13522 4968 ft 213 kts 58°
2026-05-07 16:34 30.12414 120.15037 4793 ft 215 kts 58°
2026-05-07 16:35 30.13117 120.16570 4508 ft 214 kts 59°
2026-05-07 16:35 30.13796 120.18089 4229 ft 212 kts 60°
2026-05-07 16:35 30.14462 120.19599 3954 ft 210 kts 60°
2026-05-07 16:35 30.15111 120.21082 3673 ft 208 kts 60°
2026-05-07 16:36 30.15761 120.22569 3389 ft 199 kts 60°
2026-05-07 16:36 30.16358 120.23936 3119 ft 186 kts 60°
2026-05-07 16:36 30.16927 120.25236 2884 ft 178 kts 59°
2026-05-07 16:36 30.17489 120.26511 2660 ft 178 kts 59°
2026-05-07 16:37 30.18049 120.27780 2440 ft 178 kts 59°
2026-05-07 16:37 30.18596 120.29027 2293 ft 166 kts 58°
2026-05-07 16:37 30.19095 120.30163 2084 ft 150 kts 58°
2026-05-07 16:37 30.19547 120.31191 1842 ft 136 kts 58°
2026-05-07 16:38 30.19969 120.32143 1648 ft 134 kts 57°
2026-05-07 16:38 30.20395 120.33100 1466 ft 133 kts 58°
2026-05-07 16:38 30.20820 120.34060 1286 ft 133 kts 58°
2026-05-07 16:38 30.21238 120.35008 1120 ft 132 kts 58°
2026-05-07 16:39 30.21660 120.35958 958 ft 132 kts 60°
2026-05-07 16:39 30.22079 120.36909 783 ft 132 kts 58°
2026-05-07 16:39 30.22499 120.37855 611 ft 132 kts 58°
2026-05-07 16:39 30.22916 120.38798 439 ft 132 kts 59°
2026-05-07 16:40 30.23331 120.39728 266 ft 129 kts 59°
2026-05-07 16:40 30.23740 120.40651 114 ft 128 kts 59°
2026-05-07 16:40 30.24146 120.41554 36 ft 122 kts 61°
2026-05-07 16:40 30.24478 120.42282 29 ft 69 kts 65°
2026-05-07 16:41 30.24568 120.42694 29 ft 33 kts 98°
2026-05-07 16:41 30.24436 120.42763 29 ft 18 kts 172°
2026-05-07 16:41 30.24335 120.42816 29 ft 10 kts 164°
2026-05-07 16:41 30.24261 120.42806 29 ft 11 kts 168°
2026-05-07 16:42 30.24189 120.42851 29 ft 12 kts 149°
2026-05-07 16:42 30.24146 120.42880 29 ft 5 kts 148°
2026-05-07 16:42 30.24110 120.42874 29 ft 6 kts 234°
2026-05-07 16:42 30.24096 120.42841 29 ft 1 kts 246°
2026-05-07 16:43 30.24091 120.42828 29 ft 0 kts 244°